カタログに戻る

FENGYUN 1C DEB *

LostSSO
NORAD 47004·DEBRIS·🇨🇳 China

打ち上げ May 10, 1999 から Taiyuan Satellite Launch Center

Loading…

次のパス (今後24時間)

TLE

古いSource: Space-Track

元期: May 7, 2024, 08:08 UTC

1 47004U 99025FAE 24128.33895784  .00004441  00000-0  24230-2 0  9990
2 47004  99.1026 173.2562 0068764 293.1768  66.2168 14.11410097648945

AllMySatでFENGYUN 1C DEB *をリアルタイム追跡

Download on the App Store